Regional Weather Roundup
Issued by NWS

Home | Current Version | Previous Version | Graphics & Text | Print | Product List | Glossary On
Versions: 1 2 3 4 5 6 7 8 9 10 11 12 13 14 15 16 17 18 19 20 21 22 23 24 25 26 27 28 29 30 31 32 33 34 35 36 37 38 39 40 41 42 43 44 45 46 47 48 49 50
000
ASUS43 KLOT 251303
RWRIL

ILLINOIS REGIONAL WEATHER ROUNDUP
NATIONAL WEATHER SERVICE CHICAGO/ROMEOVILLE IL
800 AM CDT THU AUG 25 2016

NOTE: "FAIR" INDICATES FEW OR NO CLOUDS BELOW 12,000 FEET WITH NO
SIGNIFICANT WEATHER AND/OR OBSTRUCTIONS TO VISIBILITY.

* THESE STATIONS ARE NOT UNDER NWS QUALITY CONTROL. THEY ALSO MAY NOT
  REPORT WEATHER SUCH AS PRECIPITATION OR FOG.

ILZ001-002-007-009-015-016-024-251400-
NORTHWEST ILLINOIS

CITY           SKY/WX    TMP DP  RH WIND       PRES   REMARKS
MOLINE         CLOUDY    73  66  78 N5        30.03R
STERLING*      CLOUDY    71  68  90 NW3       30.03R
SAVANNA*       CLOUDY    69  64  84 N7        30.03R
$$

ILZ003-004-008-010-011-017-018-251400-
NORTH CENTRAL ILLINOIS

CITY           SKY/WX    TMP DP  RH WIND       PRES   REMARKS
ROCKFORD       CLOUDY    70  68  93 NW5       30.02R
FREEPORT*      PTSUNNY   68  66  92 NW6       30.04S
ROCHELLE*      CLOUDY    69  68  96 CALM      30.02S
$$

ILZ005-006-012>014-019>023-251400-
NORTHEAST ILLINOIS

CITY           SKY/WX    TMP DP  RH WIND       PRES   REMARKS
CHICAGO-OHARE  CLOUDY    72  69  90 W7        29.98R
CHICAGO-MIDWAY CLOUDY    74  70  87 SW7       29.99R
AURORA         CLOUDY    72  69  90 NW9       30.00S
LANSING*       CLOUDY    70  68  92 W6        30.00S
JOLIET*        CLOUDY    73  72  95 SW6       30.00S
WAUKEGAN       CLOUDY    70  69  97 CALM      29.98S
DUPAGE AIRPORT CLOUDY    71  69  93 SW6       29.99R
KANKAKEE*      SUNNY     73  70  91 SW7       30.03R
WHEELING       CLOUDY    73  69  87 NW6       29.99R
MORRIS*        CLOUDY    72  70  95 SW3       30.00R
ROMEOVILLE*    CLOUDY    71  69  93 SW7       30.00S
NORTHERLY ISL    N/A     73  69  87 SW2         N/A
$$

LMZ740>746-251400-
SOUTHERN LAKE MICHIGAN

STATION/POSITION SKY/WX   TEMP    WIND        PRES    VSBY  WAVE
                          AIR SEA DIR/SP/G                  HT/PER
                          (F)     (DEG/KT/KT) (MB)    (MI)  (FT/S)
SOUTHERN BUOY              72 74  280/  2/  4 1013.6          1/ 4
WILMETTE HARBOR            69 68  240/  6/  6   N/A           0
HARRISON CRIB              74     250/ 10/ 12   N/A
BURNHAM HARBOR             73     210/  3/  8   N/A
CALUMET HARBOR             72     210/  5/  9 1014.8R
BURNS HARBOR               72     200/ 11/ 17 1016.3R
MICHIGAN CITY              71     190/ 13/ 15   N/A
MICHIGAN CITY 6N           72 74  220/ 12/ 16   N/A           1/ 3
ST. JOSEPH                 74 74  220/ 12/ 16 1014.3F         3/ 4
$$

ILZ025>027-034>036-040-047-049-050-058-095>099-251400-
WEST-CENTRAL ILLINOIS

CITY           SKY/WX    TMP DP  RH WIND       PRES   REMARKS
QUINCY         CLOUDY    71  71 100 SW5       30.03F
GALESBURG*     CLOUDY    70  69  98 W5        30.04S FOG
MACOMB*        CLOUDY    71  71  99 W7        30.06R
JACKSONVILLE*  SUNNY     72  69  90 CALM      30.05S
PITTSFIELD*    SUNNY     72  70  94 S5        30.05S
$$

ILZ028>032-037-038-041>044-048-051>054-059>061-251400-
CENTRAL ILLINOIS

CITY           SKY/WX    TMP DP  RH WIND       PRES   REMARKS
PONTIAC        CLOUDY    72  71  97 W7        30.05R
BLOOMINGTON    MOSUNNY   69  68  96 SW7       30.06R
DECATUR        SUNNY     72  68  87 SW8       30.06R
PEORIA         CLOUDY    72  72 100 SW5       30.03F FOG
LACON*         CLOUDY    71  69  94 W6        30.03R
LINCOLN*       SUNNY     71  70  95 CALM      30.05S
SPRINGFIELD    SUNNY     72  68  87 SW3       30.06R
TAYLORVILLE    SUNNY     70  68  93 CALM      30.06S
$$

ILZ033-039-045-046-055>057-062-063-251400-
EAST-CENTRAL ILLINOIS

CITY           SKY/WX    TMP DP  RH WIND       PRES   REMARKS
CHAMPAIGN      SUNNY     71  68  90 SW7       30.07R
RANTOUL*       SUNNY     72  71  96 SW6       30.06R
MATTOON        SUNNY     73  68  84 S7        30.06R
PARIS*         SUNNY     74  71  91 CALM      30.07R
$$

ILZ079-100>102-251400-
SOUTHWEST ILLINOIS

CITY           SKY/WX    TMP DP  RH WIND       PRES   REMARKS
ALTON          SUNNY     73  70  88 SE3       30.05F
BELLEVILLE     SUNNY     76  75  97 S3        30.04F
CAHOKIA*       SUNNY     77  72  84 S3        30.05S
SPARTA*        SUNNY     76  73  89 S6        30.09R
$$

ILZ064>066-069>071-074>076-080>082-084>086-088>090-092>094-251400-
SOUTH-CENTRAL ILLINOIS

CITY           SKY/WX    TMP DP  RH WIND       PRES   REMARKS
CARBONDALE     MOSUNNY   76  73  91 S7        30.10S
EFFINGHAM*     SUNNY     76  76  99 S5        30.08R
MARION         SUNNY     77  77 100 S6        30.11R
MT. VERNON     SUNNY     75  72  88 SW7       30.09R
CENTRALIA*     SUNNY     78  76  92 S5        30.06S HX  80
SALEM*         SUNNY     78  74  88 S6        30.07S HX  81
$$

ILZ067-068-072-073-078-083-087-091-251400-
SOUTHEAST ILLINOIS

CITY           SKY/WX    TMP DP  RH WIND       PRES   REMARKS
LAWRENCEVILLE  SUNNY     78  76  93 SW6       30.08R HX  81
FLORA*         SUNNY     78  76  93 SW6       30.08R HX  81
FAIRFIELD*     SUNNY     76  75  96 S3        30.08S FOG
HARRISBURG*    SUNNY     77  76  95 S3        30.10S
ROBINSON*      SUNNY     77  75  95 SW5       30.08S
CARMI*         SUNNY     78  76  94 SW7       30.09R
$$

ABBREVIATIONS USED IN REMARKS
   TC - TEMPERATURE IN CELSIUS
  WCI - WIND CHILL INDEX
   HX - HEAT INDEX
  VSB - VISIBILITY
$$





USA.gov is the U.S. government's official web portal to all federal, state and local government web resources and services.